Location: Unspecified
(0.0000°N, 0.0000°E)
Time: 06:24:26
(UTC+00:00)

Courier 1B - Pass Details

Date: 28 September 2023
Orbit: 962 x 1208 km, 28.3° (Epoch: 06 December)

Event Time Altitude Azimuth Distance (km) Brightness Sun altitude
Rises 18:34:41 0° 317° (NW) 4,060 11.4 -11.0°
Reaches altitude 10° 18:37:57 10° 327° (NNW) 3,071 10.5 -11.8°
Maximum altitude 18:44:30 31° 27° (NNE) 1,861 8.7 -13.5°
Enters shadow 18:48:38 19° 75° (ENE) 2,379 8.9 -14.5°
Drops below altitude 10° 18:50:44 10° 87° (E) 2,926 - -15.0°
Sets 18:53:45 0° 97° (E) 3,842 - -15.8°
